Толлхаус

США     37°00′50″N   119°22′04″W
темп.,
°C
ветер,
м/с
пор.,
м/с
влажн.,
%
обл.,
%
осадки,
мм/ч
давл.,
гПа
погр.,
м
19 апреля, пн
пн1923:00+11св43370 0.0 102037
02:00+11св433296 0.0 102036
05:00+11св433014 0.0 102035
08:00+16всв112713 0.0 1019127
11:00+20юз32235 0.0 10181167
14:00+22юз43230 0.0 10161779
17:00+21зюз33265 0.0 10141667
20:00+14св32443 0.0 101625
20 апреля, вт
вт2023:00+13св42458 0.0 101635
02:00+12св43450 0.0 101535
05:00+11св33455 0.0 101434
08:00+16юв113798 0.0 1013174
11:00+19юз323099 0.0 1012988
14:00+21юз43261 0.0 10101481
17:00+19юз33270 0.0 10081610
20:00+12всв224413 0.0 100818
21 апреля, ср
ср2123:00+10св32492 0.0 100826
02:00+8в215968 0.1 100811
05:00+7всв126237 0.1 100929
08:00+9юз11560 0.0 1010283
11:00+13юз32491 0.0 1010977
14:00+16юз334325 0.1 10091498
17:00+16зюз334968 0.3 10081508
20:00+10всв2274100 1.1 101042
22 апреля, чт
чт2223:00+9св326473 1.1 101038
02:00+8св324636 0.0 101133
05:00+8св32431 0.0 101132
08:00+13ю11320 0.0 1012248
11:00+17юз43320 0.0 10121379
14:00+19юз43336 0.0 10111881
17:00+19зюз333512 0.0 10101730
20:00+12св22530 0.0 101215
23 апреля, пт
пт2323:00+11св32550 0.0 101334
02:00+11св32554 0.0 101333
05:00+10св32535 0.0 101327
08:00+15ю114019 0.0 1013318
11:00+19юз32325 0.0 10131229
14:00+21юз42280 0.0 10121688
17:00+20юз32290 0.0 10111534
20:00+13св32471 0.0 101316